www.pogodaiklimat.ru

Погода и климат >> Архив погоды >> Гибралтар >> Гибралтар


ПОГОДА Гибралтаре

  • Прогноз погоды Гибралтаре
  • Монитор погоды Гибралтаре

АРХИВ ПОГОДЫ Гибралтаре

Время (UTC), дата Ветер
(напр.,м/с)
 
Видим.   Явления Облачность Т
(С)
Тd
(С)
f
(%)
Тe
(С)
Тes
(С)
Комфортность P
(гПа)
Po
(гПа)
Тmin
(С)
Tmax
(С)
R
(мм)
R24
(мм)
S
(см)
16 16.08 СВ 4 4500 м мгла 1/1 90 м
[St]
+24.2 +20.5 80 +30 +35 очень
душно
1016.2 1015.6
17 16.08 СВ 3 5000 м мгла 1/1 60 м
[St]
+24.1 +20.8 82 +30 +33 очень
душно
1015.9 1015.4
18 16.08 СВ 3 5000 м мгла ясно +24.2 +20.6 80 +30 +31 очень
душно
1015.8 1015.2 +25.1
19 16.08 СВ 3 4000 м мгла ясно +23.4 +20.2 82 +31 +31 очень
душно
1015.8 1015.2
20 16.08 В 2 3000 м мгла ясно +22.8 +19.8 83 +29 +29 очень
душно
1016.1 1015.5
21 16.08 СВ 3 9000 м н/о +22.6 +20.2 86 +29 +29 очень
душно
1016.5 1016.0
22 16.08 В 2 10 км н/о +22.4 +20.1 87 +29 +29 очень
душно
1016.8 1016.2
23 16.08 В 2 9000 м н/о +21.7 +19.7 88 +27 +27 душно 1016.8 1016.3
00 17.08 В 3 8000 м н/о +21.5 +19.9 91 +27 +27 душно 1016.7 1016.1
01 17.08 В 3 7000 м н/о +20.6 +19.5 93 +25 +25 комфорт 1016.2 1015.6
02 17.08 В 4 200 м н/о +20.8 +20.2 96 +26 +26 душно 1015.9 1015.3
03 17.08 СЗ 1 7000 м н/о +20.7 +19.5 93 +27 +27 душно 1015.8 1015.2
04 17.08 С 1 6000 м н/о +19.9 +18.6 92 +24 +24 комфорт 1015.4 1014.8
05 17.08 Ю 1 5000 м мгла 10/10 90 м
[St]
+20.8 +19.8 94 +27 +27 душно 1015.5 1014.9
06 17.08 СВ 2 600 м туман 10/10 30 м
[St]
+20.2 +19.5 96 +25 +25 комфорт 1015.6 1015.1 +19.7
07 17.08 В 2 1000 м в посл. час туман 10/10 60 м
[St]
+20.4 +19.7 96 +25 +25 комфорт 1016.0 1015.4
08 17.08 СВ 2 4000 м мгла 9/9 90 м
[St]
+21.8 +20.6 93 +28 +28 душно 1016.3 1015.7
09 17.08 СВ 3 8000 м мгла {туман} 8/8 180 м
[St]
+22.8 +20.1 85 +29 +31 очень
душно
1016.4 1015.8
10 17.08 СВ 3 12 км 5/5 180 м
[St]
+23.1 +20.1 83 +30 +35 очень
душно
1016.4 1015.9
11 17.08 В 3 12 км 3/3 240 м
[St]
+22.6 +19.6 83 +29 +38 очень
душно
1016.3 1015.7
12 17.08 В 4 12 км {туман} 1/1 240 м
[St]
+23.6 +19.9 80 +29 +41 душно 1015.9 1015.3
13 17.08 В 5 20 км ясно +23.7 +20.2 81 +29 +40 душно 1015.5 1014.9
14 17.08 В 5 9000 м мгла ясно +23.4 +20.2 82 +31 +40 очень
душно
1015.0 1014.4
15 17.08 В 4 9000 м мгла ясно +23.8 +20.5 82 +30 +38 очень
душно
1014.3 1013.7
16 17.08 В 4 7000 м мгла ясно +23.3 +20.3 83 +31 +36 очень
душно
1014.1 1013.5
17 17.08 В 3 7000 м мгла ясно +23.3 +20.4 84 +31 +34 очень
душно
1013.5 1012.9
18 17.08 В 3 5000 м мгла ясно +22.8 +20.3 86 +30 +30 очень
душно
1012.9 1012.3 +24.5
19 17.08 В 2 4000 м мгла ясно +22.2 +20.4 90 +29 +29 очень
душно
1012.8 1012.2
20 17.08 В 2 6000 м н/о +22.3 +20.6 90 +29 +29 очень
душно
1013.1 1012.6
21 17.08 ЮВ 2 9000 м н/о +23.2 +20.8 86 +31 +31 очень
душно
1013.7 1013.1
22 17.08 В 1 7000 м н/о +22.5 +20.5 88 +29 +29 очень
душно
1013.9 1013.3
23 17.08 В 2 7000 м н/о +21.9 +20.1 90 +28 +28 душно 1013.9 1013.3
00 18.08 В 1 8000 м н/о +22.1 +20.0 88 +28 +28 душно 1013.8 1013.3
01 18.08 З 2 9000 м н/о +20.6 +18.6 88 +25 +25 комфорт 1013.3 1012.7
02 18.08 З 2 9000 м н/о +20.6 +18.3 87 +25 +25 комфорт 1012.8 1012.2
03 18.08 СЗ 3 7000 м н/о +20.2 +18.3 89 +24 +24 комфорт 1012.7 1012.1
04 18.08 З 2 200 м н/о +18.9 +18.2 96 +21 +21 комфорт 1012.6 1012.0
05 18.08 З 3 10 км в посл. час туман 1/1 60 м
[St]
+19.6 +17.0 85 +22 +22 комфорт 1012.6 1012.0
06 18.08 З 3 15 км {туман} ясно +19.1 +16.5 85 +21 +21 комфорт 1012.9 1012.3 +18.6
07 18.08 ЮЗ 3 50 км ясно +21.5 +16.2 72 +25 +26 комфорт 1013.3 1012.7
08 18.08 З 3 50 км ясно +23.4 +16.7 66 +28 +32 душно 1013.7 1013.2
09 18.08 ЮЗ 4 50 км ясно +26.0 +18.2 62 +31 +37 очень
душно
1014.0 1013.4
10 18.08 З 5 50 км 1/1 750 м
[Sc]
+26.6 +17.9 59 +31 +38 душно 1014.4 1013.8
11 18.08 З 5 50 км ясно +28.2 +17.8 53 +33 +42 очень
душно
1014.4 1013.8
12 18.08 З 5 50 км ясно +30.1 +16.1 43 +33 +44 душно 1014.0 1013.5
13 18.08 ЮЗ 5 50 км ясно +31.1 +15.5 39 +34 +43 душно 1013.8 1013.2
14 18.08 ЮЗ 5 50 км ясно +30.8 +16.0 41 +34 +42 очень
душно
1013.5 1012.9
15 18.08 ЮЗ 7 50 км ясно +29.2 +16.1 45 +32 +35 душно 1013.2 1012.7
16 18.08 ЮЗ 6 50 км ясно +31.8 +14.0 34 +33 +37 жарко 1012.9 1012.3
17 18.08 З 5 50 км ясно +31.4 +13.7 34 +33 +35 жарко 1012.7 1012.1
18 18.08 З 7 50 км ясно +28.9 +16.7 48 +33 +33 очень
душно
1012.7 1012.1 +32.2
19 18.08 З 6 50 км ясно +28.7 +16.5 48 +32 +32 душно 1012.9 1012.3
20 18.08 З 6 50 км ясно +26.5 +16.5 54 +30 +30 душно 1013.0 1012.5
21 18.08 З 7 19 км н/о +26.7 +14.7 48 +29 +29 жарко 1013.8 1013.2
22 18.08 З 8 19 км н/о +24.6 +16.2 60 +28 +28 душно 1014.4 1013.8
23 18.08 З 8 19 км н/о +23.8 +15.5 60 +27 +27 жарко 1014.5 1013.9
00 19.08 З 7 20 км н/о +24.3 +15.0 56 +27 +27 жарко 1014.3 1013.7
01 19.08 ЮЗ 7 19 км н/о +24.2 +15.3 58 +27 +27 жарко 1014.2 1013.6
02 19.08 ЮЗ 6 20 км н/о +24.5 +15.2 56 +27 +27 жарко 1014.0 1013.5
03 19.08 ЮЗ 5 18 км н/о +23.8 +17.0 66 +28 +28 душно 1013.9 1013.3
04 19.08 З 6 30 км ясно +22.8 +18.7 78 +29 +29 очень
душно
1013.2 1012.6
05 19.08 ЮЗ 6 30 км ясно +22.3 +18.6 80 +28 +28 душно 1013.3 1012.7
06 19.08 З 7 50 км 1/1 360 м
[St]
+21.4 +18.7 85 +26 +26 душно 1013.8 1013.3 +21.4
07 19.08 З 7 50 км 1/1 360 м
[St]
+21.4 +18.9 86 +26 +26 душно 1014.5 1013.9
08 19.08 З 7 50 км 1/1 450 м
[Sc]
+22.5 +19.1 81 +28 +30 душно 1014.7 1014.1
09 19.08 З 7 50 км 1/1 450 м
[Sc]
+24.5 +19.2 72 +29 +32 душно 1014.9 1014.3
10 19.08 З 6 50 км 1/1 600 м
[Sc]
+26.3 +19.1 65 +32 +37 очень
душно
1014.9 1014.3
11 19.08 ЮЗ 6 50 км 1/1 600 м
[Sc]
+25.9 +18.9 65 +31 +36 очень
душно
1014.6 1014.0
12 19.08 Ю 7-13
{13}
50 км ясно +27.3 +19.1 61 +33 +37 очень
душно
1014.2 1013.7
13 19.08 ЮЗ 5 50 км ясно +29.6 +18.1 50 +34 +43 очень
душно
1014.1 1013.5
14 19.08 ЮЗ 5 50 км ясно +31.6 +17.5 43 +36 +43 очень
душно
1013.7 1013.2
15 19.08 ЮЗ 6 50 км 1/1 1350 м
[Cu hum]
+30.6 +18.3 48 +35 +40 очень
душно
1013.6 1013.0
16 19.08 ЮЗ 5 50 км 1/1 1500 м
[Sc]
+30.7 +18.1 47 +35 +39 очень
душно
1013.1 1012.5
17 19.08 ЮЗ 6 50 км ясно +28.7 +18.2 53 +33 +35 очень
душно
1012.9 1012.3
18 19.08 ЮЗ 6
{13}
50 км ясно +29.4 +17.6 49 +34 +34 очень
душно
1012.8 1012.2 +32.2
19 19.08 З 4 50 км 1/1 1500 м
[Sc]
+28.2 +15.8 47 +31 +31 душно 1013.1 1012.5
20 19.08 ЮЗ 5 50 км ясно +26.7 +15.1 49 +29 +29 жарко 1013.6 1013.1
21 19.08 ЮЗ 6 19 км н/о +24.3 +16.6 62 +28 +28 душно 1014.4 1013.8
22 19.08 З 7 20 км н/о +23.4 +17.0 67 +29 +29 душно 1014.6 1014.0
23 19.08 З 10 19 км н/о +23.7 +12.1 48 +25 +25 комфорт 1014.9 1014.3
00 20.08 З 8 19 км н/о +23.8 +10.2 42 +25 +25 комфорт 1014.7 1014.2
01 20.08 ЮЗ 6 19 км н/о +24.1 +9.9 41 +25 +25 комфорт 1014.5 1014.0
02 20.08 З 7 19 км н/о +22.6 +13.3 56 +26 +26 жарко 1014.4 1013.8
03 20.08 ЮЗ 5 18 км н/о +22.5 +14.9 62 +26 +26 жарко 1014.2 1013.6
04 20.08 ЮЗ 4 30 км ясно +22.7 +15.2 63 +27 +27 душно 1014.0 1013.4
05 20.08 З 5 30 км 1/0
[Ci fib]
+21.7 +16.7 73 +26 +26 душно 1014.2 1013.6
06 20.08 ЮЗ 3 40 км 1/0
[Ci sp]
+21.8 +16.8 73 +26 +26 душно 1014.8 1014.2 +21.5
07 20.08 ЮЗ 3 40 км 1/1 450 м
[Sc Ci sp]
+22.0 +17.0 73 +26 +27 душно 1015.3 1014.7
08 20.08 З 3 40 км 1/1 450 м
[Sc Ci sp]
+23.1 +16.7 67 +28 +31 душно 1015.7 1015.1
09 20.08 ЮЗ 2 50 км 3/1 450 м
[Sc Ci sp]
+23.9 +16.8 64 +27 +35 жарко 1016.0 1015.4
10 20.08 ЮЗ 2 40 км 3/1 450 м
[Sc Ci sp]
+26.5 +17.1 56 +30 +42 душно 1016.3 1015.7
11 20.08 Ю 3 40 км 3/1 450 м
[Cu Sc Ci sp]
+26.5 +17.4 57 +31 +43 душно 1016.2 1015.7
12 20.08 В 1 40 км 1/1 600 м
[Cu Sc Ci fib]
+27.4 +16.4 51 +31 +50 душно 1015.8 1015.2
13 20.08 Ю 5 35 км 1/1 1350 м
[Cu hum Ci fib]
+27.7 +15.4 47 +31 +39 душно 1015.6 1015.1
14 20.08 Ю 6 40 км 1/0
[Ci fib]
+27.8 +13.4 41 +30 +36 жарко 1015.3 1014.7
15 20.08 В 2 40 км 1/0
[Ci fib]
+29.2 +13.4 38 +31 +42 жарко 1014.8 1014.2
16 20.08 ЮВ 3 15 км н/о +27.6 +16.8 52 +31 +31 душно 1014.7 1014.1
17 20.08 СВ 2 40 км 1/0
[Ci fib]
+27.7 +14.3 44 +30 +34 жарко 1014.5 1014.0
18 20.08 Ю 2 16 км н/о +25.3 +16.3 57 +29 +29 душно 1014.4 1013.8 +29.5
19 20.08 В 1 16 км н/о +24.5 +16.2 60 +28 +28 душно 1014.8 1014.3
20 20.08 В 3 16 км н/о +22.1 +18.2 79 +27 +27 душно 1015.4 1014.8
21 20.08 В 2 17 км н/о +22.4 +16.7 70 +27 +27 душно 1016.4 1015.8
22 20.08 В 2 17 км н/о +22.4 +17.2 72 +27 +27 душно 1016.7 1016.1
23 20.08 В 4 14 км н/о +23.0 +20.0 83 +30 +30 очень
душно
1016.8 1016.2
00 21.08 В 7 14 км н/о +23.5 +20.9 85 +29 +29 душно 1016.8 1016.2
01 21.08 В 7 13 км н/о +22.8 +20.4 86 +30 +30 очень
душно
1017.0 1016.4
02 21.08 В 7 11 км н/о +22.5 +20.4 88 +29 +29 очень
душно
1016.7 1016.2
03 21.08 В 6 10 км н/о +22.2 +20.5 90 +29 +29 очень
душно
1016.7 1016.1
04 21.08 В 6 10 км н/о +22.7 +21.0 90 +30 +30 очень
душно
1016.4 1015.8
05 21.08 В 5 9000 м мгла 9/9 400 м
[Sc]
+22.3 +20.2 88 +29 +29 очень
душно
1016.4 1015.8
06 21.08 В 5 7000 м мгла 9/9 360 м
[Sc]
+23.3 +21.6 90 +31 +31 очень
душно
1016.7 1016.1 +21.9
07 21.08 В 5 7000 м мгла 9/9 400 м
[Sc]
+23.8 +21.7 88 +30 +31 очень
душно
1017.0 1016.4
08 21.08 В 5 7000 м мгла 9/9 420 м
[Sc]
+23.9 +21.4 86 +30 +31 очень
душно
1017.1 1016.5
09 21.08 В 4 7000 м 6/6 450 м
[Sc]
+24.4 +21.3 83 +31 +33 очень
душно
1017.5 1016.9
10 21.08 В 5 7000 м 6/6 600 м
[Sc]
+23.8 +20.9 84 +30 +33 очень
душно
1017.7 1017.1
11 21.08 В 7 7000 м 4/4 400 м
[Sc]
+25.8 +21.9 79 +33 +36 очень
душно
1017.6 1017.0
12 21.08 В 6 7000 м 5/5 330 м
[Sc]
+25.0 +21.2 79 +32 +35 очень
душно
1017.3 1016.7
13 21.08 В 5 7000 м мгла 6/6 420 м
[Sc]
+24.9 +21.6 82 +32 +35 очень
душно
1017.1 1016.5
14 21.08 В 5 7000 м мгла 4/4 360 м
[Sc]
+26.0 +21.6 77 +33 +38 очень
душно
1016.8 1016.2
15 21.08 В 7 7000 м мгла 4/4 400 м
[Sc]
+26.2 +21.7 76 +34 +36 очень
душно
1016.3 1015.7
16 21.08 В 5 8000 м мгла 3/3 400 м
[St]
+25.4 +21.5 79 +32 +35 очень
душно
1016.0 1015.4
17 21.08 В 5 7000 м мгла 3/3 300 м
[St]
+25.0 +21.7 82 +32 +33 очень
душно
1016.1 1015.5
18 21.08 В 6 7000 м мгла 3/3 330 м
[St]
+25.0 +21.7 82 +32 +32 очень
душно
1016.0 1015.4 +26.6
19 21.08 В 7 7000 м мгла 4/4 330 м
[St]
+24.9 +22.3 85 +32 +32 очень
душно
1016.4 1015.8
20 21.08 В 7 10 км н/о +23.7 +21.8 89 +30 +30 очень
душно
1017.0 1016.4
21 21.08 В 8 10 км н/о +23.6 +21.7 89 +30 +30 очень
душно
1017.7 1017.1
22 21.08 В 8 11 км н/о +23.4 +21.3 88 +31 +31 очень
душно
1018.1 1017.5
23 21.08 В 7 10 км н/о +22.9 +20.9 89 +30 +30 очень
душно
1018.4 1017.8
00 22.08 В 7 10 км н/о +22.9 +21.0 89 +30 +30 очень
душно
1018.3 1017.7
01 22.08 В 7 10 км н/о +22.9 +21.0 89 +30 +30 очень
душно
1017.7 1017.1
02 22.08 В 9 10 км н/о +22.6 +21.0 91 +30 +30 очень
душно
1017.4 1016.8
03 22.08 В 10
{13}
10 км н/о +22.8 +21.0 90 +30 +30 очень
душно
1017.3 1016.7
04 22.08 В 7 9000 м н/о +22.3 +20.8 91 +29 +29 очень
душно
1017.0 1016.4
05 22.08 В 7 10 км 5/5 360 м
[Sc]
+22.2 +20.7 91 +29 +29 очень
душно
1016.9 1016.4
06 22.08 В 7 7000 м 8/8 400 м
[Sc]
+22.3 +20.2 88 +29 +29 очень
душно
1017.1 1016.5 +22.1
07 22.08 В 5 10 км 8/8 420 м
[Sc]
+22.8 +20.3 86 +30 +30 очень
душно
1017.4 1016.8
08 22.08 В 7 10 км 4/4 420 м
[St]
+23.6 +20.3 82 +29 +30 душно 1017.6 1017.0
09 22.08 В 7 11 км 4/4 1000 м
[Sc]
+24.2 +20.3 79 +30 +31 очень
душно
1017.8 1017.2
10 22.08 В 7 12 км 5/5 420 м
[Sc]
+24.4 +20.5 79 +30 +32 очень
душно
1018.1 1017.5
11 22.08 В 9
{13}
10 км 3/3 420 м
[St]
+25.1 +20.4 75 +31 +32 очень
душно
1018.0 1017.4
12 22.08 В 7-13
{14}
12 км 3/3 420 м
[Sc]
+25.7 +20.7 74 +32 +35 очень
душно
1017.7 1017.1
13 22.08 В 9
{15}
12 км 4/4 420 м
[Sc]
+25.5 +20.6 74 +32 +33 очень
душно
1017.3 1016.7
14 22.08 В 8
{14}
12 км 3/3 420 м
[Sc]
+25.5 +20.6 74 +32 +33 очень
душно
1017.1 1016.5
15 22.08 В 8 12 км 3/3 420 м
[Sc]
+25.7 +20.7 74 +32 +33 очень
душно
1016.8 1016.2
16 22.08 В 8
{13}
12 км 3/3 420 м
[Sc]
+25.7 +20.8 74 +32 +33 очень
душно
1016.5 1015.9
17 22.08 В 10
{13}
н/о н/о +24.8 +20.8 78
18 22.08 В 7
{13}
15 км 3/3 420 м
[St]
+24.5 +20.5 78 +30 +30 очень
душно
1016.4 1015.8 +26.3
19 22.08 В 8 12 км н/о +23.6 +20.6 83 +29 +29 душно 1016.7 1016.2
20 22.08 В 6 10 км 1/1 330 м
[St]
+23.4 +20.9 86 +31 +31 очень
душно
1017.2 1016.6
21 22.08 В 9 12 км н/о +23.4 +20.8 85 +31 +31 очень
душно
1017.7 1017.1
22 22.08 В 9 14 км н/о +23.1 +20.6 86 +30 +30 очень
душно
1017.7 1017.1
23 22.08 В 9 12 км н/о +23.0 +20.7 87 +30 +30 очень
душно
1017.6 1017.0
00 23.08 В 10
{14}
11 км н/о +22.8 +20.4 86 +30 +30 очень
душно
1017.5 1016.9
01 23.08 В 11
{13}
13 км н/о +22.9 +20.3 85 +30 +30 очень
душно
1017.1 1016.5
02 23.08 В 10
{14}
12 км н/о +22.6 +20.3 87 +29 +29 очень
душно
1017.1 1016.5
03 23.08 СВ 10
{13}
13 км н/о +22.8 +20.5 87 +30 +30 очень
душно
1017.2 1016.6
04 23.08 В 10
{13}
12 км н/о +22.5 +20.5 88 +29 +29 очень
душно
1017.0 1016.4
05 23.08 СВ 8
{14}
12 км 5/5 360 м
[St]
+22.5 +20.2 87 +29 +29 очень
душно
1016.7 1016.1
06 23.08 СВ 9
{13}
12 км 5/5 360 м
[St]
+22.4 +20.1 87 +29 +29 очень
душно
1017.2 1016.6 +22.3
07 23.08 В 8 12 км 5/5 360 м
[Cu Sc]
+22.9 +20.2 85 +30 +30 очень
душно
1017.7 1017.1
08 23.08 В 9 12 км 4/4 360 м
[Cu hum]
+23.7 +20.5 82 +29 +30 душно 1018.1 1017.5
09 23.08 СВ 8 12 км 4/4 540 м
[Cu Sc]
+24.1 +20.4 80 +30 +31 очень
душно
1018.5 1017.9
10 23.08 В 7-12
{13}
20 км 6/6 540 м
[Cu Sc]
+24.7 +20.0 75 +30 +32 очень
душно
1018.7 1018.1
11 23.08 В 8 25 км 6/6 660 м
[Cu Sc]
+24.9 +19.9 74 +30 +32 душно 1018.7 1018.1
12 23.08 В 7 25 км 8/8 600 м
[Sc]
+25.3 +19.9 72 +31 +32 очень
душно
1018.3 1017.8
13 23.08 В 7 25 км 6/6 600 м
[Sc]
+25.7 +19.6 69 +31 +33 очень
душно
1018.1 1017.6
14 23.08 В 7 25 км 4/4 630 м
[Sc]
+26.0 +19.6 68 +32 +34 очень
душно
1017.5 1016.9

 

Местоположение метеостанции Гибралтар (Гибралтар): широта 36.15 долгота -5.35 высота над уровнем моря 5 м.

В архиве по умолчанию представлена погода Гибралтаре за последнюю неделю. Архивные данные за месяц целиком и за предыдущие месяцы, начиная с января 2011 года, Вы можете получить, выбрав интересующий диапазон дат из раскрывающегося списка и нажав кнопку "Ввод!".


*Определитесь, кто Вы:
робот инопланетянин человек

Внимание! Время в таблицах - всемирное. Для получения местного времени необходимо прибавить поправку, которая равна 1 ч.

Смотрите также архив погоды в соседних городах и на ближайших метеорологических станциях:

Погода в Тарифе (Испания) (27 км)
Погода в Сеуте (Испания) (28 км)
Погода в Эстепоне (Испания) (35 км)
Погода в Вехер-де-ла-Фронтера (Испания) (56 км)
Погода в Танжер порту (Марокко) (58 км)
Погода в Тетуане (Марокко) (63 км)
Погода в Грасалеме (Испания) (68 км)
Погода в Танжере (Марокко) (68 км)
Погода в Фуэнхироле (Испания) (78 км)
Погода в Сан-Фернандо (Испания) (85 км)

Пояснения к столбцам:

Ветер - указаны скорость ветра в м/с - средняя за 10 мин, порывы в срок и между сроками (в фигурных скобках) и направление, откуда дует ветер: С - северный, СВ - северо-восточный, В - восточный, ЮВ - юго-восточный, Ю - южный, ЮЗ - юго-западный, З - западный, СЗ - северо-западный.
Видимость - горизонтальная дальность видимости в метрах или километрах. При видимости от 1 до 10 км при отсутствии осадков обычно наблюдается дымка, при ухудшении видимости до 1 км и менее - туман. В сухую погоду видимость может ухудшаться дымом, пылью или мглою.
Явления - указаны атмосферные явления, наблюдавшиеся в срок или в последний час перед сроком; фигурными скобками обозначены явления, наблюдавшиеся между сроками (за 1-3 часа до срока); квадратными скобками обозначены град или гололедные отложения с указанием их диаметра в мм.
Облачность - указаны через наклонную черту общая и нижняя облачность в баллах и высота нижней границы облаков в метрах; квадратными скобками обозначены формы облаков: Ci - перистые, Cs - перисто-слоистые, Cc - перисто-кучевые, Ac - высококучевые, As - высокослоистые, Sc - слоисто-кучевые, Ns - слоисто-дождевые, Cu - кучевые, Cb - кучево-дождевые. Подробнее классификацию облаков см. в Атласе облаков (PDF).
T - Температура воздуха - температура, измеренная на высоте 2 м над землей.
Td - Температура точки росы - температура, при понижении до которой содержащийся в воздухе водяной пар достигнет насыщения.
f - Относительная влажность воздуха - влажноcть воздуха, измеренная на высоте 2 м над землей.
Te - Эффективная температура - температура, которую ощущает одетый по сезону человек в тени. Характеристика душности погоды. При расчете учитывается влияние влажности воздуха и скорости ветра на теплоощущения человека.
Tes - Эффективная температура на солнце - температура, которую ощущает человек, с поправкой на солнечный нагрев. Характеристика знойности погоды. Зависит от высоты солнца над горизонтом, облачности и скорости ветра. Ночью, в пасмурную погоду, а также при ветре 12 м/с и более поправка равна нулю.
P - Атмосферное давление - приведенное к уровню моря атмосферное давление.
Po - Атмосферное давление - измеренное на уровне метеостанции атмосферное давление.
Tmin - Минимальная температура - минимум температуры воздуха на высоте 2 м над землей.
Tmax - Максимальная температура - максимум температуры воздуха на высоте 2 м над землей.
R - Количество осадков - Количество выпавших осадков за период времени, мм. При наведении курсора мыши на число - период времени, за который выпало указанное количество осадков.
R24 - Количество осадков - Количество выпавших осадков за 24 часа, мм.
S - Снежный покров - Высота снежного покрова, см. При наведении курсора мыши на число - состояние снежного покрова и степень покрытия местности в баллах.